Weather History for KHBG - November, 2013

Change the Weather History Date:

Saturday, November 9, 2013

  Actual Average Record
Temperature  
Mean Temperature 57 °F 60 °F  
Max Temperature 72 °F 72 °F 85 °F (1986)
Min Temperature 41 °F 47 °F 24 °F (1951)
Degree Days  
Heating Degree Days 8 7  
Month to date heating degree days 54 52  
Since 1 July heating degree days 99 127  
Cooling Degree Days 0 1  
Month to date cooling degree days 2 13  
Year to date cooling degree days 2392 2375  
Growing Degree Days 7 (Base 50)    
Moisture  
Dew Point 47 °F    
Average Humidity 72    
Maximum Humidity 96    
Minimum Humidity 47    
Precipitation  
Precipitation 0.00 in 0.12 in 1.94 in (1990)
Month to date precipitation 0.64 1.18  
Year to date precipitation 59.14 51.17  
Sea Level Pressure  
Sea Level Pressure 30.23 in    
Wind  
Wind Speed 1 mph (East)    
Max Wind Speed 7 mph    
Max Gust Speed 40 mph    
Visibility 10 miles    
Events      
T = Trace of Precipitation, MM = Missing Value Source: NWS Daily Summary

Daily Weather History Graph

Daily Weather History Graph

Search for Another Location

Airport or City:

Trip Planner

Search our weather history database for the weather conditions in past years. The results will help you decide how hot, cold, wet, or windy it might be!

Date:

Astronomy

Nov. 09, 2013 Rise Set
Actual Time 6:19 AM CST 5:01 PM CST
Civil Twilight 5:54 AM CST 5:27 PM CST
Nautical Twilight 5:25 AM CST 5:56 PM CST
Astronomical Twilight 4:56 AM CST 6:24 PM CST
Moon 12:00 PM CST (11/9) 11:26 PM CST (11/9)
Length of Visible Light 11h 33m
Length of Day
10h 42m
Waxing Crescent, 44% of the Moon is Illuminated
Nov 9
Waxing Crescent
Nov 9
First Quarter
Nov 17
Full
Nov 25
Last Quarter
Dec 2
New

Hourly Weather History & Observations

Time (CST) Temp. Dew Point Humidity Pressure Visibility Wind Dir Wind Speed Gust Speed Precip Events Conditions
12:53 AM 44.1 °F 41.0 °F 89% 30.23 in 10.0 mi Calm Calm - N/A   Clear
1:53 AM 42.1 °F 39.9 °F 92% 30.21 in 10.0 mi Calm Calm - N/A   Clear
2:53 AM 42.1 °F 39.0 °F 89% 30.22 in 10.0 mi Calm Calm - N/A   Clear
3:53 AM 43.0 °F 39.9 °F 89% 30.21 in 10.0 mi Calm Calm - N/A   Clear
4:53 AM 42.1 °F 39.9 °F 92% 30.23 in 10.0 mi Calm Calm - N/A   Clear
5:53 AM 44.1 °F 41.0 °F 89% 30.23 in 10.0 mi Calm Calm - N/A   Clear
6:53 AM 46.0 °F 42.1 °F 86% 30.26 in 10.0 mi Calm Calm - N/A   Clear
7:53 AM 51.1 °F 41.0 °F 68% 30.28 in 10.0 mi Calm Calm - N/A   Clear
8:53 AM 54.0 °F 43.0 °F 66% 30.29 in 10.0 mi Calm Calm - N/A   Clear
9:53 AM 60.1 °F 45.0 °F 57% 30.29 in 10.0 mi ENE 5.8 mph - N/A   Clear
10:53 AM 64.9 °F 48.9 °F 56% 30.26 in 10.0 mi ESE 5.8 mph - N/A   Clear
11:53 AM 69.1 °F 51.1 °F 53% 30.23 in 10.0 mi Variable 3.5 mph - N/A   Clear
12:53 PM 70.0 °F 51.1 °F 51% 30.20 in 10.0 mi Calm Calm - N/A   Clear
1:53 PM 72.0 °F 50.0 °F 46% 30.20 in 10.0 mi Variable 3.5 mph - N/A   Clear
2:53 PM 71.1 °F 50.0 °F 47% 30.19 in 10.0 mi Calm Calm - N/A   Clear
3:53 PM 71.1 °F 51.1 °F 49% 30.19 in 10.0 mi SE 4.6 mph - N/A   Clear
4:53 PM 64.9 °F 52.0 °F 63% 30.20 in 10.0 mi NNE 3.5 mph - N/A   Clear
5:53 PM 59.0 °F 53.1 °F 81% 30.21 in 10.0 mi Calm Calm - N/A   Clear
6:53 PM 59.0 °F 53.1 °F 81% 30.22 in 10.0 mi Calm Calm - N/A   Clear
7:53 PM 57.9 °F 53.1 °F 84% 30.24 in 10.0 mi Calm Calm - N/A   Clear
8:53 PM 61.0 °F 52.0 °F 72% 30.23 in 10.0 mi Calm Calm - N/A   Clear
9:53 PM 60.1 °F 52.0 °F 75% 30.22 in 10.0 mi Calm Calm - N/A   Mostly Cloudy
10:53 PM 57.0 °F 53.1 °F 87% 30.24 in 10.0 mi Calm Calm - N/A   Clear
11:53 PM 55.0 °F 52.0 °F 89% 30.24 in 10.0 mi Calm Calm - N/A   Clear